| time (UTC) | temp F | wind direction | speed knots | gust knots | rain 1hr in | rain 24hr in | rain mn in | humidity % | barometer mb |
| 20260902183855 | 64 | 205 | 3.5 | 5.2 | 0.00 | 0.00 | 0.00 | 74 | 1019.6 |
| 20260902182355 | 62 | 201 | 1.7 | 3.5 | 0.00 | 0.00 | 0.00 | 75 | 1019.4 |
| 20260902180854 | 64 | 210 | 3.5 | 5.2 | 0.00 | 0.00 | 0.00 | 72 | 1019.2 |
| 20260902175354 | 64 | 211 | 1.7 | 3.5 | 0.00 | 0.00 | 0.00 | 72 | 1019.2 |
| 20260902173854 | 64 | 225 | 3.5 | 5.2 | 0.00 | 0.00 | 0.00 | 69 | 1019.2 |
| 20260902172353 | 64 | 222 | 3.5 | 9.6 | 0.00 | 0.00 | 0.00 | 69 | 1019.3 |
| 20260902170853 | 66 | 244 | 7.0 | 9.6 | 0.00 | 0.00 | 0.00 | 64 | 1019.2 |
| 20260902165352 | 68 | 238 | 5.2 | 9.6 | 0.00 | 0.00 | 0.00 | 58 | 1019.2 |
| 20260902163852 | 66 | 233 | 5.2 | 9.6 | 0.00 | 0.00 | 0.00 | 59 | 1019.4 |
| 20260902162352 | 66 | 235 | 3.5 | 7.0 | 0.00 | 0.00 | 0.00 | 61 | 1019.4 |
| 20260902160850 | 64 | 225 | 3.5 | 9.6 | 0.00 | 0.00 | 0.00 | 64 | 1019.6 |
| 20260902155350 | 64 | 216 | 5.2 | 9.6 | 0.00 | 0.00 | 0.00 | 61 | 1019.6 |
| 20260902153849 | 64 | 222 | 5.2 | 14.8 | 0.00 | 0.00 | 0.00 | 61 | 1019.6 |
| 20260902152348 | 64 | 244 | 9.6 | 14.8 | 0.00 | 0.00 | 0.00 | 62 | 1019.9 |
| 20260902150848 | 66 | 257 | 14.8 | 19.1 | 0.00 | 0.00 | 0.00 | 64 | 1019.9 |
| 20260902145348 | 66 | 265 | 11.3 | 19.1 | 0.00 | 0.00 | 0.00 | 63 | 1019.8 |
| 20260902143847 | 68 | 273 | 7.0 | 11.3 | 0.00 | 0.00 | 0.00 | 59 | 1019.6 |
| 20260902142346 | 69 | 233 | 9.6 | 13.0 | 0.00 | 0.00 | 0.00 | 62 | 1019.4 |
| 20260902140845 | 69 | 223 | 9.6 | 14.8 | 0.00 | 0.00 | 0.00 | 60 | 1019.6 |
| 20260902135344 | 69 | 223 | 9.6 | 14.8 | 0.00 | 0.00 | 0.00 | 60 | 1019.6 |
| 20260902133844 | 69 | 223 | 9.6 | 14.8 | 0.00 | 0.00 | 0.00 | 60 | 1019.6 |
| 20260902132343 | 69 | 223 | 9.6 | 14.8 | 0.00 | 0.00 | 0.00 | 60 | 1019.6 |
| 20260902130842 | 69 | 223 | 9.6 | 14.8 | 0.00 | 0.00 | 0.00 | 60 | 1019.6 |
| 20260902125341 | 69 | 223 | 9.6 | 14.8 | 0.00 | 0.00 | 0.00 | 60 | 1019.6 |
| 20260902123841 | 69 | 223 | 9.6 | 14.8 | 0.00 | 0.00 | 0.00 | 60 | 1019.6 |
| 20260902122341 | 69 | 229 | 9.6 | 14.8 | 0.00 | 0.00 | 0.00 | 57 | 1019.6 |
| 20260902120840 | 69 | 226 | 9.6 | 13.0 | 0.00 | 0.00 | 0.00 | 59 | 1019.6 |
| 20260902115340 | 69 | 222 | 9.6 | 11.3 | 0.00 | 0.00 | 0.00 | 58 | 1019.6 |
| 20260902113839 | 69 | 231 | 7.0 | 14.8 | 0.00 | 0.00 | 0.00 | 56 | 1019.8 |
| 20260902112338 | 69 | 231 | 7.0 | 14.8 | 0.00 | 0.00 | 0.00 | 56 | 1019.8 |
| 20260902110836 | 69 | 224 | 7.0 | 13.0 | 0.00 | 0.00 | 0.00 | 56 | 1020.0 |
| 20260902105336 | 68 | 229 | 9.6 | 13.0 | 0.00 | 0.00 | 0.00 | 56 | 1020.0 |
| 20260902103835 | 68 | 226 | 9.6 | 14.8 | 0.00 | 0.00 | 0.00 | 54 | 1020.0 |
| 20260902102334 | 68 | 226 | 9.6 | 14.8 | 0.00 | 0.00 | 0.00 | 54 | 1020.0 |
| 20260902100834 | 68 | 238 | 9.6 | 14.8 | 0.00 | 0.00 | 0.00 | 57 | 1020.0 |
| 20260902095333 | 68 | 222 | 9.6 | 13.0 | 0.00 | 0.00 | 0.00 | 59 | 1020.0 |
| 20260902093833 | 68 | 233 | 9.6 | 13.0 | 0.00 | 0.00 | 0.00 | 61 | 1019.9 |
| 20260902092332 | 66 | 231 | 9.6 | 14.8 | 0.00 | 0.00 | 0.00 | 64 | 1019.9 |
| 20260902090831 | 66 | 224 | 7.0 | 14.8 | 0.00 | 0.00 | 0.00 | 64 | 1019.9 |
| 20260902085331 | 64 | 237 | 7.0 | 13.0 | 0.00 | 0.00 | 0.00 | 66 | 1019.8 |
| 20260902083830 | 64 | 227 | 7.0 | 11.3 | 0.00 | 0.00 | 0.00 | 68 | 1019.7 |
| 20260902082330 | 62 | 213 | 5.2 | 9.6 | 0.00 | 0.00 | 0.00 | 74 | 1019.7 |
| 20260902080830 | 62 | 215 | 5.2 | 9.6 | 0.00 | 0.00 | 0.00 | 73 | 1019.7 |
| 20260902075329 | 59 | 208 | 3.5 | 7.0 | 0.00 | 0.00 | 0.00 | 80 | 1019.7 |
| 20260902073828 | 59 | 200 | 3.5 | 7.0 | 0.00 | 0.00 | 0.00 | 82 | 1019.7 |
| 20260902072327 | 57 | 194 | 3.5 | 5.2 | 0.00 | 0.00 | 0.00 | 84 | 1019.6 |
| 20260902070827 | 57 | 189 | 1.7 | 3.5 | 0.00 | 0.00 | 0.00 | 88 | 1019.5 |
| 20260902065326 | 57 | 189 | 1.7 | 3.5 | 0.00 | 0.00 | 0.00 | 88 | 1019.5 |
| 20260902063825 | 55 | 195 | 1.7 | 3.5 | 0.00 | 0.00 | 0.00 | 89 | 1019.5 |
| 20260902062324 | 55 | 176 | 1.7 | 3.5 | 0.00 | 0.00 | 0.00 | 90 | 1019.6 |
| 20260902060824 | 53 | 170 | 3.5 | 3.5 | 0.00 | 0.00 | 0.00 | 92 | 1019.6 |
| 20260902055323 | 53 | 173 | 1.7 | 3.5 | 0.00 | 0.00 | 0.00 | 93 | 1019.4 |
| 20260902053823 | 51 | 171 | 1.7 | 3.5 | 0.00 | 0.00 | 0.00 | 93 | 1019.4 |
| 20260902052322 | 51 | 191 | 1.7 | 1.7 | 0.00 | 0.00 | 0.00 | 91 | 1019.4 |
| 20260902050822 | 51 | 183 | 1.7 | 1.7 | 0.00 | 0.00 | 0.00 | 94 | 1019.4 |
| 20260902045321 | 51 | 158 | 1.7 | 1.7 | 0.00 | 0.00 | 0.00 | 93 | 1019.4 |
| 20260902043821 | 51 | 151 | 1.7 | 1.7 | 0.00 | 0.00 | 0.00 | 94 | 1019.2 |
| 20260902042320 | 51 | 157 | 1.7 | 1.7 | 0.00 | 0.00 | 0.00 | 94 | 1019.3 |
| 20260902040820 | 51 | 165 | 1.7 | 1.7 | 0.00 | 0.00 | 0.00 | 95 | 1019.4 |
| 20260902035319 | 51 | 157 | 1.7 | 1.7 | 0.00 | 0.00 | 0.00 | 96 | 1019.6 |
| 20260902033818 | 51 | 151 | 1.7 | 1.7 | 0.00 | 0.00 | 0.00 | 95 | 1019.6 |
| 20260902032318 | 51 | 175 | 0.0 | 0.0 | 0.00 | 0.00 | 0.00 | 95 | 1019.7 |
| 20260902030818 | 51 | 181 | 0.0 | 0.0 | 0.00 | 0.00 | 0.00 | 96 | 1019.7 |
| 20260902025317 | 51 | 185 | 0.0 | 1.7 | 0.00 | 0.00 | 0.00 | 95 | 1019.8 |
| 20260902023816 | 50 | 165 | 1.7 | 1.7 | 0.00 | 0.00 | 0.00 | 95 | 1019.9 |
| 20260902022315 | 50 | 165 | 1.7 | 1.7 | 0.00 | 0.00 | 0.00 | 95 | 1019.9 |
| 20260902020815 | 51 | 173 | 0.0 | 1.7 | 0.00 | 0.00 | 0.00 | 96 | 1019.9 |
| 20260902015315 | 51 | 163 | 1.7 | 1.7 | 0.00 | 0.00 | 0.00 | 96 | 1019.9 |
| 20260902013813 | 50 | 156 | 1.7 | 1.7 | 0.00 | 0.00 | 0.00 | 95 | 1019.8 |
| 20260902012313 | 48 | 151 | 0.0 | 1.7 | 0.00 | 0.00 | 0.00 | 95 | 1019.9 |
| 20260902010812 | 48 | 153 | 0.0 | 1.7 | 0.00 | 0.00 | 0.00 | 96 | 1020.0 |
| 20260902005313 | 50 | 181 | 0.0 | 1.7 | 0.00 | 0.00 | 0.00 | 96 | 1020.0 |
| 20260902003812 | 50 | 174 | 1.7 | 1.7 | 0.00 | 0.00 | 0.00 | 96 | 1020.0 |
| 20260902002312 | 50 | 123 | 0.0 | 0.0 | 0.00 | 0.00 | 0.00 | 95 | 1020.0 |
| 20260902000812 | 50 | 122 | 0.0 | 0.0 | 0.00 | 0.00 | 0.00 | 97 | 1020.0 |
| 20260901235310 | 50 | 331 | 0.0 | 0.0 | 0.00 | 0.00 | 0.00 | 95 | 1020.2 |
| 20260901233811 | 50 | 330 | 0.0 | 0.0 | 0.00 | 0.00 | 0.00 | 98 | 1020.2 |
| 20260901232310 | 50 | 331 | 0.0 | 0.0 | 0.00 | 0.00 | 0.00 | 96 | 1020.1 |
| 20260901230810 | 48 | 87 | 0.0 | 1.7 | 0.00 | 0.00 | 0.00 | 96 | 1020.1 |
| 20260901225309 | 50 | 127 | 1.7 | 1.7 | 0.00 | 0.00 | 0.00 | 95 | 1020.5 |
| 20260901223810 | 50 | 129 | 0.0 | 0.0 | 0.00 | 0.00 | 0.00 | 96 | 1020.7 |
| 20260901222309 | 50 | 127 | 0.0 | 0.0 | 0.00 | 0.00 | 0.00 | 99 | 1020.7 |
| 20260901220808 | 48 | 128 | 0.0 | 1.7 | 0.00 | 0.00 | 0.00 | 96 | 1020.8 |
| 20260901215308 | 50 | 128 | 0.0 | 0.0 | 0.00 | 0.00 | 0.00 | 95 | 1020.9 |
| 20260901213809 | 50 | 128 | 0.0 | 0.0 | 0.00 | 0.00 | 0.00 | 96 | 1020.8 |
| 20260901212309 | 51 | 128 | 0.0 | 0.0 | 0.00 | 0.00 | 0.00 | 95 | 1020.6 |
| 20260901210808 | 51 | 129 | 0.0 | 0.0 | 0.00 | 0.00 | 0.00 | 96 | 1020.7 |
| 20260901205308 | 51 | 128 | 0.0 | 0.0 | 0.00 | 0.00 | 0.00 | 95 | 1020.5 |
| 20260901203807 | 53 | 128 | 0.0 | 1.7 | 0.00 | 0.00 | 0.00 | 96 | 1020.4 |
| 20260901202306 | 51 | 123 | 0.0 | 0.0 | 0.00 | 0.00 | 0.00 | 94 | 1020.4 |
| 20260901200805 | 53 | 112 | 0.0 | 1.7 | 0.00 | 0.00 | 0.00 | 96 | 1020.3 |
| 20260901195306 | 53 | 127 | 0.0 | 1.7 | 0.00 | 0.00 | 0.00 | 92 | 1020.2 |
| 20260901193804 | 53 | 152 | 0.0 | 0.0 | 0.00 | 0.00 | 0.00 | 89 | 1020.3 |
| 20260901192301 | 57 | 157 | 0.0 | 0.0 | 0.00 | 0.00 | 0.00 | 85 | 1020.4 |
| 20260901190800 | 57 | 169 | 0.0 | 1.7 | 0.00 | 0.00 | 0.00 | 84 | 1020.4 |
| 20260901185259 | 57 | 328 | 0.0 | 1.7 | 0.00 | 0.00 | 0.00 | 81 | 1020.3 |